カタログに戻る

COSMOS 1275 DEB

運用中PO
NORAD 15766·DEBRIS·🇷🇺 Russia

打ち上げ Jun 4, 1981 から Plesetsk Cosmodrome

Loading…

次のパス (今後24時間)

TLE

最新Source: Space-Track

元期: Sep 13, 2026, 08:32 UTC

1 15766U 81053KB  26256.35607750  .00003861  00000-0  10327-2 0  9999
2 15766  82.9334 220.1418 0004089 333.0998  26.9986 14.48117873126902

AllMySatでCOSMOS 1275 DEBをリアルタイム追跡

Download on the App Store